Regional Weather Roundup
Issued by NWS Mobile, AL

Home | Current Version | Previous Version | Text Only | Print | Product List | Glossary On
Versions: 1 2 3 4 5 6 7 8 9 10 11 12 13 14 15 16 17 18 19 20 21 22 23 24 25 26 27 28 29 30 31 32 33 34 35 36 37 38 39 40 41 42 43 44 45 46 47 48 49 50
000
ASUS44 KMOB 220510
RWRMOB
REGIONAL WEATHER ROUNDUP
NATIONAL WEATHER SERVICE MOBILE AL
1200 AM CDT WED OCT 22 2014

NOTE: "FAIR" INDICATES FEW OR NO CLOUDS BELOW 12,000 FEET WITH NO
      SIGNIFICANT WEATHER AND/OR OBSTRUCTIONS TO VISIBILITY.

  * THESE STATIONS ARE PART OF THE UNIVERSITY OF SOUTH ALABAMA
    MESONET AND ARE NOT UNDER NWS OR FAA QUALITY CONTROL.

ALZ061>064-220600-
COASTAL ALABAMA

CITY           SKY/WX    TMP DP  RH WIND       PRES   REMARKS
MOBILE REG APT CLEAR     58  55  90 N3        30.03S
BROOKLEY FIELD CLEAR     56  56 100 NW5       30.04S
USA CAMPUS*      N/A     59  54  82 CALM      30.04S
DOG RIVER*     NOT AVBL


CITY           SKY/WX    TMP DP  RH WIND       PRES   REMARKS
MOUNT VERNON*    N/A     50  48  93 CALM      30.04F
SARALAND*      NOT AVBL
BAY MINETTE*   NOT AVBL
LOXLEY*          N/A     55  54  94 CALM      30.03S
ROBERTSDALE*     N/A     57  55  94 CALM      30.02S
FAIRHOPE*        N/A     57  55  94 CALM      30.02S
ELBERTA*         N/A     57  55  94 N3        30.01F
FOLEY*           N/A     54  52  94 CALM      30.00S
GRAND BAY*       N/A     54  54 100 CALM      30.01S
DAUPHIN ISLND* NOT AVBL
BON SCOUR NWR* NOT AVBL
GULF SHORES    CLEAR     58  55  92 CALM      30.02S

$$

ALZ051>060-220600-
INTERIOR SOUTHWEST AND SOUTH CENTRAL ALABAMA

CITY           SKY/WX    TMP DP  RH WIND       PRES   REMARKS
GREENVILLE     CLEAR     55  51  86 N5        30.03S
EVERGREEN      CLEAR     53  51  93 N3        30.03F
CASTLEBERRY*   NOT AVBL
ATMORE*          N/A     54  54 100 N2        30.04F
DIXIE*           N/A     59  57  94 CALM      30.00F
ANDALUSIA/OPP  CLEAR     60  53  77 CALM      30.02F
ANDALUSIA*       N/A     63  54  72 N3        30.02F
FLORALA APT    CLEAR     54  51  90 CALM      30.04S
FLORALA*         N/A     54  52  94 CALM      30.00S

$$

FLZ001>006-220600-
WESTERN FLORIDA PANHANDLE

CITY           SKY/WX    TMP DP  RH WIND       PRES   REMARKS
PENSACOLA      CLEAR     61  55  81 N3        30.01F
NAS PENSACOLA  CLEAR     57  55  93 CALM      30.01F
MILTON         CLEAR     57  53  86 N3        30.02F
WHTNG S FIELD  CLEAR     55  52  89 CALM      30.02F


CITY           SKY/WX    TMP DP  RH WIND       PRES   REMARKS
WALNUT HILL*   NOT AVBL
JAY*             N/A     61  54  77 VRB2      30.03F
DUKE FIELD     CLEAR     54  52  92 CALM      30.01F
CRESTVIEW      CLEAR     52  51  97 CALM      30.03F
VALPARAISO     CLEAR     61  53  75 N2        30.01F
DESTIN         CLEAR     67  58  72 N5        30.00F

$$

MSZ076-079-220600-
INTERIOR SOUTHEAST MISSISSIPPI

CITY           SKY/WX    TMP DP  RH WIND       PRES   REMARKS
LEAKESVILLE*     N/A     57  54  88 CALM      30.05S
AGRICOLA*      NOT AVBL

$$

MARINE OBSERVATIONS

STATION/POSITION TIME  TEMP    WIND        PRES    WAVE
                       AIR SEA DIR/SP/G            HT/PER
                 (UTC) (F)     (DEG/KT/KT) (MB)    (FT/S)
PASCAGOULA       0500   67     350/  4/  4 1016.5R
PETIT BOIS ISLND 0500   73      50/  8/  9 1016.7F
GRAND BAY        0400   65     350/  2     1017.0S
E DAUPHIN ISLAND 0500   73      20/  9/ 10 1016.5F
USCG MOBILE BAY  0500   64 75  330/  3/  4 1015.4F
STATE DOCKS      0500   65 75              1016.5S
MEAHER PARK      0400   65        CALM     1016.9S
WEEKS BAY        0400   59                   N/A
FORT MORGAN      0500   71      80/  7/  9 1015.9F
12 S ORANGE BCH  0500   75 78   30/ 14/ 16 1015.6F   1/ 2
PENSACOLA BAY    0500   69 75  360/  5/  6 1016.3F
64 S DAUPHIN ISL 0433   76 79   40/ 12/ 14 1016.4F   1/ 5
67 S FORT MORGAN 0400   75                 1015.6F

$$

SELECTED LOCATIONS ACROSS THE REGION

CITY           SKY/WX    TMP DP  RH WIND       PRES   REMARKS
NEW ORLEANS    CLEAR     64  56  75 CALM      30.03S
GULFPORT       CLEAR     60  56  86 CALM      30.03R
PASCAGOULA AP  CLEAR     52  51  97 CALM      30.03S
PASCAGOULA*      N/A     59  59 100 CALM      30.03S
HATTIESBURG    CLEAR     56  55  97 CALM      30.05F
LAUREL         CLEAR     55  52  88 CALM      30.06F
MERIDIAN       PTCLDY    53  51  93 CALM      30.06F
JACKSON        CLEAR     55  54  96 CALM      30.07S
MONTGOMERY     CLEAR     55  52  89 CALM      30.04R
TROY           CLEAR     53  51  93 CALM      30.04S
KINSTON*       NOT AVBL
GENEVA*          N/A     55  52  88 CALM      30.03F
ASHFORD*         N/A     63  54  72 N3        30.02F
DOTHAN         CLEAR     55  53  93 NW3       30.04F
PANAMA CITY    CLEAR     57  53  86 CALM      29.99F

$$




USA.gov is the U.S. government's official web portal to all federal, state and local government web resources and services.